This is the latest recevied weather packets stored in our database for station/object NEWPRT. If no packets are shown the sender has not sent any weather packets the latest 10 day(s).
| Time | Temp. | Humidity | Pressure | Rain* | Wind** | Luminosity | Snow |
|---|---|---|---|---|---|---|---|
| 1777644059 | - | 90% | 1018 hPa | 0 mm | - | - | - |
| 1777643736 | - | 91% | 1018.3 hPa | 0 mm | - | - | - |
| 1777643414 | - | 91% | 1018.6 hPa | 0 mm | - | - | - |
| 1777643090 | - | 90% | 1018.3 hPa | 0 mm | - | - | - |
| 1777642768 | - | 90% | 1018.1 hPa | 0 mm | - | - | - |
| 1777642444 | - | 91% | 1018.1 hPa | 0 mm | - | - | - |
| 1777642121 | - | 92% | 1017.9 hPa | 0 mm | - | - | - |
| 1777641798 | - | 90% | 1017.9 hPa | 0 mm | - | - | - |
| 1777641475 | - | 89% | 1018.2 hPa | 0 mm | - | - | - |
| 1777641153 | - | 92% | 1018.3 hPa | 0 mm | - | - | - |
| 1777640829 | - | 90% | 1018.4 hPa | 0 mm | - | - | - |
| 1777640506 | - | 91% | 1018.3 hPa | 0 mm | - | - | - |
| 1777640183 | - | 91% | 1018.2 hPa | 0 mm | - | - | - |
| 1777639861 | - | 90% | 1018.2 hPa | 0 mm | - | - | - |
| 1777639537 | - | 90% | 1018.4 hPa | 0 mm | - | - | - |
| 1777639214 | - | 90% | 1017.8 hPa | 0 mm | - | - | - |
| 1777638891 | - | 90% | 1018.3 hPa | 0 mm | - | - | - |
| 1777638568 | - | 89% | 1018.3 hPa | 0 mm | - | - | - |
| 1777638245 | - | 88% | 1018.2 hPa | 0 mm | - | - | - |
| 1777637922 | - | 89% | 1018.5 hPa | 0 mm | - | - | - |
| 1777637599 | - | 89% | 1018.2 hPa | 0 mm | - | - | - |
| 1777637276 | - | 90% | 1018.1 hPa | 0 mm | - | - | - |
| 1777636953 | - | 90% | 1018.4 hPa | 0 mm | - | - | - |
| 1777636631 | - | 88% | 1018.3 hPa | 0 mm | - | - | - |
| 1777636307 | - | 90% | 1018.4 hPa | 0 mm | - | - | - |
* Rain latest hour (hover to see other rain measurements)
** Current wind speed in m/s (hover to see current wind gust speed)